Weather History for Massena, NY

Change the Weather History Date:

Thursday, April 25, 2013

  Actual Average Record
Temperature  
Mean Temperature 46 °F 48 °F  
Max Temperature 54 °F 59 °F 83 °F (2009)
Min Temperature 37 °F 37 °F 21 °F (1974)
Degree Days  
Heating Degree Days 19 17  
Month to date heating degree days 589 570  
Since 1 July heating degree days 7121 7701  
Cooling Degree Days 0 0  
Month to date cooling degree days 0 0  
Year to date cooling degree days 0 0  
Moisture  
Dew Point 30 °F    
Average Humidity 56    
Maximum Humidity 79    
Minimum Humidity 32    
Precipitation  
Precipitation 0.01 in 0.09 in 0.96 in (1951)
Month to date precipitation 1.56 2.33  
Year to date precipitation 4.28 8.37  
Sea Level Pressure  
Sea Level Pressure 30.10 in    
Wind  
Wind Speed 10 mph (WSW)    
Max Wind Speed 29 mph    
Max Gust Speed 36 mph    
Visibility 10 miles    
Events Rain    
T = Trace of Precipitation, MM = Missing Value Source: NWS Daily Summary

Daily Weather History Graph

Daily Weather History Graph

Search for Another Location

Airport:

Trip Planner

Search our weather history database for the weather conditions in past years. The results will help you decide how hot, cold, wet, or windy it might be!

Date:

Astronomy

Apr. 25, 2013 Rise Set
Actual Time 5:57 AM EDT 7:57 PM EDT
Civil Twilight 5:26 AM EDT 8:29 PM EDT
Nautical Twilight 4:47 AM EDT 9:08 PM EDT
Astronomical Twilight 4:04 AM EDT 9:51 PM EDT
Moon 8:09 PM EDT (4/25) 5:39 AM EDT (4/25)
Length of Visible Light 15h 03m
Length of Day
13h 59m
Full, 100% of the Moon is Illuminated
Apr 25
Full
Apr 25
Full
May 2
Last Quarter
May 9
New
May 18
First Quarter

Hourly Weather History & Observations

Time (EDT) Temp. Windchill Dew Point Humidity Pressure Visibility Wind Dir Wind Speed Gust Speed Precip Events Conditions
12:53 AM 44.1 °F 36.2 °F 41.0 °F 89% 29.76 in 9.0 mi SW 18.4 mph 27.6 mph 0.00 in Rain Light Rain
1:45 AM 39.2 °F 29.6 °F 35.6 °F 87% 29.83 in 10.0 mi West 19.6 mph 28.8 mph 0.01 in Rain Light Rain
1:53 AM 39.9 °F 30.8 °F 35.1 °F 83% 29.84 in 10.0 mi WSW 18.4 mph 26.5 mph 0.01 in Rain Light Rain
2:00 AM 39.2 °F 29.6 °F 35.6 °F 87% 29.84 in 10.0 mi WSW 19.6 mph 26.5 mph 0.00 in Rain Light Rain
2:38 AM 39.2 °F 29.8 °F 35.6 °F 87% 29.87 in 10.0 mi WSW 18.4 mph 26.5 mph 0.00 in Rain Light Rain
2:53 AM 39.9 °F 31.8 °F 34.0 °F 79% 29.89 in 10.0 mi WSW 15.0 mph 24.2 mph 0.00 in Rain Light Rain
3:07 AM 39.2 °F 29.6 °F 33.8 °F 81% 29.90 in 10.0 mi WSW 19.6 mph 27.6 mph 0.00 in Rain Light Rain
3:53 AM 39.0 °F 29.6 °F 34.0 °F 82% 29.94 in 10.0 mi West 18.4 mph 26.5 mph 0.00 in Rain Light Rain
4:53 AM 37.9 °F 30.5 °F 33.1 °F 83% 30.00 in 10.0 mi WSW 11.5 mph 26.5 mph 0.00 in   Overcast
5:53 AM 37.9 °F 30.5 °F 32.0 °F 79% 30.04 in 10.0 mi West 11.5 mph - 0.00 in Rain Light Rain
6:31 AM 37.4 °F 29.8 °F 28.4 °F 70% 30.05 in 10.0 mi West 11.5 mph 23.0 mph N/A   Scattered Clouds
6:53 AM 37.0 °F 29.8 °F 30.0 °F 76% 30.07 in 10.0 mi WSW 10.4 mph - N/A   Partly Cloudy
7:53 AM 37.9 °F 30.5 °F 30.0 °F 73% 30.13 in 10.0 mi West 11.5 mph - N/A   Mostly Cloudy
8:01 AM 37.4 °F 29.8 °F 28.4 °F 70% 30.13 in 10.0 mi WSW 11.5 mph 24.2 mph N/A   Overcast
8:27 AM 39.2 °F 30.8 °F 28.4 °F 65% 30.14 in 10.0 mi West 15.0 mph 20.7 mph N/A   Mostly Cloudy
8:53 AM 39.9 °F 31.4 °F 27.0 °F 60% 30.16 in 10.0 mi WSW 16.1 mph - N/A   Scattered Clouds
9:53 AM 43.0 °F 34.5 °F 28.0 °F 56% 30.19 in 10.0 mi West 19.6 mph 24.2 mph N/A   Scattered Clouds
10:53 AM 45.0 °F 39.3 °F 24.1 °F 44% 30.21 in 10.0 mi WSW 11.5 mph 20.7 mph N/A   Clear
11:53 AM 46.9 °F - 26.1 °F 44% 30.22 in 10.0 mi West 13.8 mph 20.7 mph N/A   Scattered Clouds
12:53 PM 48.9 °F - 26.1 °F 41% 30.22 in 10.0 mi WSW 11.5 mph 18.4 mph N/A   Mostly Cloudy
1:53 PM 51.1 °F - 26.1 °F 38% 30.22 in 10.0 mi West 13.8 mph 19.6 mph N/A   Clear
2:53 PM 52.0 °F - 26.1 °F 37% 30.21 in 10.0 mi West 9.2 mph - N/A   Partly Cloudy
3:53 PM 53.1 °F - 26.1 °F 35% 30.20 in 10.0 mi West 11.5 mph 18.4 mph N/A   Clear
4:53 PM 53.1 °F - 25.0 °F 34% 30.19 in 10.0 mi South 6.9 mph - N/A   Clear
5:53 PM 53.1 °F - 24.1 °F 32% 30.21 in 10.0 mi Calm Calm - N/A   Clear
6:53 PM 51.1 °F - 26.1 °F 38% 30.23 in 10.0 mi SW 5.8 mph - N/A   Mostly Cloudy
7:53 PM 48.0 °F - 27.0 °F 44% 30.25 in 10.0 mi SW 4.6 mph - N/A   Clear
8:53 PM 45.0 °F 41.2 °F 26.1 °F 48% 30.28 in 10.0 mi SW 6.9 mph - N/A   Clear
9:53 PM 42.1 °F 40.2 °F 27.0 °F 55% 30.28 in 10.0 mi East 3.5 mph - N/A   Clear
10:53 PM 39.0 °F - 28.9 °F 67% 30.28 in 10.0 mi Calm Calm - N/A   Clear
11:53 PM 39.0 °F - 30.0 °F 70% 30.29 in 10.0 mi Calm Calm - N/A   Scattered Clouds